| time (UTC) | temp F | wind direction | speed knots | gust knots | rain 1hr in | rain 24hr in | rain mn in | humidity % | barometer mb |
| 20260507192129 | 90 | 147 | 1.7 | 4.3 | 0.00 | 0.00 | 0.00 | 2 | 968.9 |
| 20260507191630 | 91 | 295 | 1.7 | 5.2 | 0.00 | 0.00 | 0.00 | 2 | 969.0 |
| 20260507191129 | 90 | 15 | 0.9 | 5.2 | 0.00 | 0.00 | 0.00 | 3 | 969.1 |
| 20260507190629 | 89 | 29 | 1.7 | 6.1 | 0.00 | 0.00 | 0.00 | 5 | 969.2 |
| 20260507190130 | 89 | 11 | 1.7 | 6.1 | 0.00 | 0.00 | 0.00 | 2 | 969.3 |
| 20260507185628 | 89 | 11 | 0.9 | 3.5 | 0.00 | 0.00 | 0.00 | 3 | 969.4 |
| 20260507184628 | 89 | 11 | 0.9 | 3.5 | 0.00 | 0.00 | 0.00 | 1 | 969.5 |
| 20260507183624 | 89 | 11 | 0.9 | 2.6 | 0.00 | 0.00 | 0.00 | 2 | 969.7 |
| 20260507183124 | 89 | 11 | 0.9 | 2.6 | 0.00 | 0.00 | 0.00 | 4 | 969.8 |
| 20260507182621 | 89 | 11 | 0.9 | 3.5 | 0.00 | 0.00 | 0.00 | 4 | 969.9 |
| 20260507182123 | 88 | 11 | 0.0 | 3.5 | 0.00 | 0.00 | 0.00 | 7 | 969.9 |
| 20260507181117 | 87 | 11 | 0.9 | 3.5 | 0.00 | 0.00 | 0.00 | 6 | 970.1 |
| 20260507180614 | 88 | 11 | 0.9 | 3.5 | 0.00 | 0.00 | 0.00 | 13 | 970.1 |
| 20260507180116 | 88 | 11 | 0.0 | 3.5 | 0.00 | 0.00 | 0.00 | 7 | 970.1 |
| 20260507175609 | 87 | 11 | 0.9 | 2.6 | 0.00 | 0.00 | 0.00 | 6 | 970.1 |
| 20260507174557 | 86 | 11 | 0.0 | 2.6 | 0.00 | 0.00 | 0.00 | 5 | 970.1 |
| 20260507174051 | 85 | 11 | 0.0 | 2.6 | 0.00 | 0.00 | 0.00 | 12 | 970.2 |
| 20260507173543 | 84 | 11 | 0.0 | 3.5 | 0.00 | 0.00 | 0.00 | 7 | 970.2 |
| 20260507173039 | 85 | 11 | 0.9 | 3.5 | 0.00 | 0.00 | 0.00 | 6 | 970.3 |
| 20260507172532 | 85 | 11 | 0.9 | 3.5 | 0.00 | 0.00 | 0.00 | 8 | 970.3 |
| 20260507172027 | 85 | 11 | 0.9 | 5.2 | 0.00 | 0.00 | 0.00 | 6 | 970.4 |
| 20260507171521 | 85 | 11 | 0.9 | 5.2 | 0.00 | 0.00 | 0.00 | 9 | 970.4 |
| 20260507171015 | 84 | 11 | 0.0 | 3.5 | 0.00 | 0.00 | 0.00 | 11 | 970.5 |
| 20260507170005 | 83 | 11 | 0.0 | 2.6 | 0.00 | 0.00 | 0.00 | 10 | 970.6 |
| 20260507164952 | 82 | 11 | 0.0 | 0.9 | 0.00 | 0.00 | 0.00 | 13 | 970.6 |
| 20260507163433 | 82 | 11 | 0.0 | 1.7 | 0.00 | 0.00 | 0.00 | 14 | 970.8 |
| 20260507162927 | 82 | 11 | 0.0 | 1.7 | 0.00 | 0.00 | 0.00 | 14 | 970.7 |
| 20260507162421 | 81 | 11 | 0.0 | 1.7 | 0.00 | 0.00 | 0.00 | 15 | 970.8 |
| 20260507161409 | 81 | 61 | 0.0 | 2.6 | 0.00 | 0.00 | 0.00 | 14 | 970.9 |
| 20260507160359 | 80 | 102 | 0.0 | 0.0 | 0.00 | 0.00 | 0.00 | 18 | 971.0 |
| 20260507155851 | 79 | 11 | 0.0 | 0.0 | 0.00 | 0.00 | 0.00 | 18 | 971.0 |
| 20260507155344 | 79 | 11 | 0.0 | 0.9 | 0.00 | 0.00 | 0.00 | 19 | 971.0 |
| 20260507154839 | 78 | 102 | 0.0 | 0.9 | 0.00 | 0.00 | 0.00 | 18 | 971.0 |
| 20260507154332 | 77 | 100 | 0.0 | 0.0 | 0.00 | 0.00 | 0.00 | 20 | 971.0 |
| 20260507153827 | 77 | 11 | 0.0 | 0.0 | 0.00 | 0.00 | 0.00 | 20 | 971.1 |
| 20260507152815 | 77 | 11 | 0.0 | 1.7 | 0.00 | 0.00 | 0.00 | 20 | 970.9 |
| 20260507151803 | 76 | 11 | 0.0 | 1.7 | 0.00 | 0.00 | 0.00 | 21 | 970.9 |
| 20260507151256 | 76 | 11 | 0.0 | 1.7 | 0.00 | 0.00 | 0.00 | 23 | 971.0 |
| 20260507150751 | 76 | 11 | 0.0 | 2.6 | 0.00 | 0.00 | 0.00 | 22 | 970.9 |
| 20260507145739 | 75 | 11 | 0.0 | 2.6 | 0.00 | 0.00 | 0.00 | 23 | 971.0 |
| 20260507145232 | 75 | 11 | 0.9 | 2.6 | 0.00 | 0.00 | 0.00 | 22 | 971.0 |
| 20260507144727 | 74 | 127 | 0.9 | 2.6 | 0.00 | 0.00 | 0.00 | 24 | 971.0 |
| 20260507144222 | 74 | 76 | 0.9 | 3.5 | 0.00 | 0.00 | 0.00 | 23 | 971.0 |
| 20260507143208 | 73 | 74 | 0.9 | 2.6 | 0.00 | 0.00 | 0.00 | 25 | 970.9 |
| 20260507142703 | 72 | 73 | 0.9 | 3.5 | 0.00 | 0.00 | 0.00 | 25 | 970.8 |
| 20260507142157 | 71 | 71 | 0.9 | 3.5 | 0.00 | 0.00 | 0.00 | 25 | 970.8 |
| 20260507141654 | 69 | 107 | 0.0 | 1.7 | 0.00 | 0.00 | 0.00 | 29 | 970.8 |
| 20260507140638 | 67 | 109 | 0.0 | 0.0 | 0.00 | 0.00 | 0.00 | 38 | 970.7 |
| 20260507140133 | 66 | 109 | 0.0 | 0.0 | 0.00 | 0.00 | 0.00 | 40 | 970.8 |
| 20260507135632 | 65 | 109 | 0.0 | 0.0 | 0.00 | 0.00 | 0.00 | 39 | 970.7 |
| 20260507135131 | 64 | 109 | 0.0 | 0.0 | 0.00 | 0.00 | 0.00 | 40 | 970.7 |
| 20260507134628 | 64 | 109 | 0.0 | 0.0 | 0.00 | 0.00 | 0.00 | 40 | 970.6 |
| 20260507134126 | 63 | 109 | 0.0 | 0.0 | 0.00 | 0.00 | 0.00 | 36 | 970.6 |
| 20260507133624 | 63 | 109 | 0.0 | 0.0 | 0.00 | 0.00 | 0.00 | 37 | 970.5 |
| 20260507133121 | 62 | 109 | 0.0 | 1.7 | 0.00 | 0.00 | 0.00 | 36 | 970.6 |
| 20260507132621 | 62 | 109 | 0.0 | 1.7 | 0.00 | 0.00 | 0.00 | 35 | 970.5 |
| 20260507131618 | 63 | 11 | 0.9 | 3.5 | 0.00 | 0.00 | 0.00 | 31 | 970.4 |
| 20260507131117 | 63 | 11 | 1.7 | 3.5 | 0.00 | 0.00 | 0.00 | 31 | 970.5 |
| 20260507130617 | 63 | 11 | 0.9 | 2.6 | 0.00 | 0.00 | 0.00 | 31 | 970.3 |
| 20260507130116 | 63 | 11 | 0.0 | 2.6 | 0.00 | 0.00 | 0.00 | 29 | 970.2 |
| 20260507125616 | 63 | 11 | 0.0 | 1.7 | 0.00 | 0.00 | 0.00 | 29 | 970.3 |
| 20260507125116 | 63 | 11 | 0.9 | 3.5 | 0.00 | 0.00 | 0.00 | 28 | 970.3 |
| 20260507124617 | 63 | 11 | 2.6 | 4.3 | 0.00 | 0.00 | 0.00 | 28 | 970.3 |
| 20260507124117 | 63 | 11 | 2.6 | 4.3 | 0.00 | 0.00 | 0.00 | 29 | 970.3 |
| 20260507123617 | 62 | 11 | 1.7 | 3.5 | 0.00 | 0.00 | 0.00 | 30 | 970.2 |
| 20260507123117 | 61 | 11 | 1.7 | 4.3 | 0.00 | 0.00 | 0.00 | 30 | 970.3 |
| 20260507122616 | 60 | 11 | 1.7 | 4.3 | 0.00 | 0.00 | 0.00 | 31 | 970.3 |
| 20260507122116 | 60 | 11 | 0.9 | 3.5 | 0.00 | 0.00 | 0.00 | 34 | 970.3 |
| 20260507121616 | 59 | 11 | 0.0 | 1.7 | 0.00 | 0.00 | 0.00 | 34 | 970.3 |
| 20260507120614 | 59 | 11 | 0.0 | 1.7 | 0.00 | 0.00 | 0.00 | 34 | 970.4 |
| 20260507115604 | 59 | 11 | 0.9 | 2.6 | 0.00 | 0.00 | 0.00 | 35 | 970.4 |
| 20260507115056 | 59 | 11 | 0.9 | 2.6 | 0.00 | 0.00 | 0.00 | 34 | 970.5 |
| 20260507114552 | 58 | 11 | 0.9 | 2.6 | 0.00 | 0.00 | 0.00 | 36 | 970.4 |
| 20260507114045 | 58 | 11 | 0.0 | 2.6 | 0.00 | 0.00 | 0.00 | 36 | 970.4 |
| 20260507113539 | 59 | 11 | 0.0 | 1.7 | 0.00 | 0.00 | 0.00 | 36 | 970.4 |
| 20260507113034 | 59 | 11 | 0.0 | 1.7 | 0.00 | 0.00 | 0.00 | 36 | 970.3 |
| 20260507112528 | 59 | 11 | 0.0 | 1.7 | 0.00 | 0.00 | 0.00 | 36 | 970.2 |
| 20260507112020 | 59 | 11 | 0.0 | 1.7 | 0.00 | 0.00 | 0.00 | 36 | 970.2 |
| 20260507111516 | 59 | 11 | 0.0 | 2.6 | 0.00 | 0.00 | 0.00 | 35 | 970.2 |
| 20260507111010 | 59 | 11 | 0.9 | 2.6 | 0.00 | 0.00 | 0.00 | 35 | 970.3 |
| 20260507110503 | 59 | 11 | 0.9 | 2.6 | 0.00 | 0.00 | 0.00 | 36 | 970.3 |
| 20260507105958 | 59 | 11 | 0.9 | 2.6 | 0.00 | 0.00 | 0.00 | 36 | 970.3 |
| 20260507104945 | 58 | 11 | 0.9 | 2.6 | 0.00 | 0.00 | 0.00 | 37 | 970.3 |
| 20260507104439 | 58 | 11 | 0.9 | 2.6 | 0.00 | 0.00 | 0.00 | 38 | 970.4 |
| 20260507103934 | 58 | 11 | 0.0 | 2.6 | 0.00 | 0.00 | 0.00 | 38 | 970.4 |
| 20260507103428 | 58 | 11 | 0.0 | 0.0 | 0.00 | 0.00 | 0.00 | 39 | 970.4 |
| 20260507102920 | 58 | 11 | 0.0 | 0.0 | 0.00 | 0.00 | 0.00 | 40 | 970.5 |
| 20260507102415 | 58 | 11 | 0.0 | 0.0 | 0.00 | 0.00 | 0.00 | 40 | 970.4 |
| 20260507101909 | 59 | 11 | 0.0 | 0.0 | 0.00 | 0.00 | 0.00 | 40 | 970.7 |
| 20260507101404 | 59 | 11 | 0.0 | 0.0 | 0.00 | 0.00 | 0.00 | 39 | 970.6 |
| 20260507100352 | 59 | 11 | 0.0 | 0.9 | 0.00 | 0.00 | 0.00 | 38 | 970.7 |
| 20260507095846 | 59 | 11 | 0.0 | 0.9 | 0.00 | 0.00 | 0.00 | 38 | 970.8 |
| 20260507093820 | 59 | 11 | 0.0 | 1.7 | 0.00 | 0.00 | 0.00 | 38 | 970.9 |
| 20260507093316 | 59 | 11 | 0.0 | 1.7 | 0.00 | 0.00 | 0.00 | 38 | 971.1 |
| 20260507092810 | 59 | 11 | 0.0 | 1.7 | 0.00 | 0.00 | 0.00 | 38 | 971.0 |
| 20260507092306 | 60 | 11 | 0.0 | 1.7 | 0.00 | 0.00 | 0.00 | 38 | 971.0 |
| 20260507091757 | 60 | 11 | 0.0 | 1.7 | 0.00 | 0.00 | 0.00 | 38 | 971.0 |
| 20260507091251 | 60 | 11 | 0.9 | 1.7 | 0.00 | 0.00 | 0.00 | 37 | 971.0 |
| 20260507090744 | 60 | 11 | 0.9 | 2.6 | 0.00 | 0.00 | 0.00 | 37 | 971.1 |
| 20260507090240 | 61 | 11 | 0.0 | 2.6 | 0.00 | 0.00 | 0.00 | 36 | 971.0 |
| 20260507085734 | 61 | 11 | 0.9 | 2.6 | 0.00 | 0.00 | 0.00 | 35 | 971.1 |
| 20260507085228 | 61 | 11 | 0.9 | 2.6 | 0.00 | 0.00 | 0.00 | 35 | 971.1 |
| 20260507084722 | 61 | 11 | 0.9 | 2.6 | 0.00 | 0.00 | 0.00 | 35 | 971.2 |
| 20260507084217 | 61 | 11 | 0.9 | 2.6 | 0.00 | 0.00 | 0.00 | 35 | 971.2 |
| 20260507083708 | 61 | 11 | 0.9 | 2.6 | 0.00 | 0.00 | 0.00 | 35 | 971.1 |
| 20260507083203 | 61 | 11 | 0.9 | 2.6 | 0.00 | 0.00 | 0.00 | 35 | 971.3 |
| 20260507082658 | 61 | 11 | 0.9 | 2.6 | 0.00 | 0.00 | 0.00 | 35 | 971.2 |
| 20260507082155 | 61 | 11 | 1.7 | 3.5 | 0.00 | 0.00 | 0.00 | 35 | 971.2 |
| 20260507081654 | 61 | 11 | 1.7 | 3.5 | 0.00 | 0.00 | 0.00 | 35 | 971.3 |
| 20260507081153 | 61 | 11 | 1.7 | 3.5 | 0.00 | 0.00 | 0.00 | 36 | 971.2 |
| 20260507080654 | 61 | 11 | 1.7 | 3.5 | 0.00 | 0.00 | 0.00 | 37 | 971.2 |
| 20260507080153 | 60 | 11 | 0.9 | 3.5 | 0.00 | 0.00 | 0.00 | 39 | 971.3 |
| 20260507075656 | 60 | 11 | 0.0 | 0.9 | 0.00 | 0.00 | 0.00 | 40 | 971.3 |
| 20260507074649 | 61 | 11 | 0.0 | 0.0 | 0.00 | 0.00 | 0.00 | 42 | 971.3 |
| 20260507074149 | 61 | 11 | 0.0 | 0.0 | 0.00 | 0.00 | 0.00 | 42 | 971.4 |
| 20260507073650 | 60 | 11 | 0.0 | 0.0 | 0.00 | 0.00 | 0.00 | 41 | 971.4 |
| 20260507073149 | 61 | 11 | 0.0 | 0.0 | 0.00 | 0.00 | 0.00 | 42 | 971.3 |
| 20260507072645 | 61 | 11 | 0.0 | 0.0 | 0.00 | 0.00 | 0.00 | 42 | 971.3 |
| 20260507072145 | 61 | 11 | 0.0 | 0.0 | 0.00 | 0.00 | 0.00 | 41 | 971.4 |
| 20260507071645 | 61 | 11 | 0.0 | 0.0 | 0.00 | 0.00 | 0.00 | 41 | 971.4 |
| 20260507071146 | 61 | 11 | 0.0 | 0.0 | 0.00 | 0.00 | 0.00 | 41 | 971.4 |
| 20260507070645 | 62 | 11 | 0.0 | 0.0 | 0.00 | 0.00 | 0.00 | 39 | 971.5 |
| 20260507070144 | 62 | 11 | 0.0 | 0.0 | 0.00 | 0.00 | 0.00 | 39 | 971.3 |
| 20260507065639 | 62 | 11 | 0.0 | 0.0 | 0.00 | 0.00 | 0.00 | 40 | 971.3 |
| 20260507064628 | 62 | 11 | 0.0 | 0.0 | 0.00 | 0.00 | 0.00 | 40 | 971.1 |
| 20260507064122 | 62 | 11 | 0.0 | 0.0 | 0.00 | 0.00 | 0.00 | 39 | 971.1 |
| 20260507063619 | 62 | 11 | 0.0 | 0.0 | 0.00 | 0.00 | 0.00 | 37 | 971.1 |
| 20260507062617 | 61 | 11 | 0.0 | 0.0 | 0.00 | 0.00 | 0.00 | 37 | 971.1 |
| 20260507061114 | 61 | 11 | 0.0 | 0.0 | 0.00 | 0.00 | 0.00 | 36 | 971.1 |
| 20260507060614 | 62 | 11 | 0.0 | 0.9 | 0.00 | 0.00 | 0.00 | 34 | 971.2 |
| 20260507060115 | 62 | 11 | 0.0 | 0.9 | 0.00 | 0.00 | 0.00 | 34 | 971.1 |
| 20260507055611 | 62 | 11 | 0.0 | 0.9 | 0.00 | 0.00 | 0.00 | 33 | 971.2 |
| 20260507054607 | 63 | 11 | 0.0 | 0.0 | 0.00 | 0.00 | 0.00 | 32 | 971.1 |
| 20260507053103 | 64 | 11 | 0.0 | 0.0 | 0.00 | 0.00 | 0.00 | 32 | 971.1 |
| 20260507052602 | 64 | 11 | 0.0 | 0.0 | 0.00 | 0.00 | 0.00 | 30 | 971.1 |
| 20260507052104 | 65 | 11 | 0.0 | 0.0 | 0.00 | 0.00 | 0.00 | 29 | 971.1 |
| 20260507051559 | 65 | 11 | 0.0 | 0.9 | 0.00 | 0.00 | 0.00 | 29 | 971.1 |
| 20260507051059 | 65 | 11 | 0.0 | 0.9 | 0.00 | 0.00 | 0.00 | 29 | 971.0 |
| 20260507050600 | 66 | 11 | 0.0 | 0.0 | 0.00 | 0.00 | 0.00 | 29 | 971.1 |
| 20260507050054 | 66 | 11 | 0.0 | 0.0 | 0.00 | 0.00 | 0.00 | 29 | 971.0 |
| 20260507045553 | 66 | 11 | 0.0 | 0.0 | 0.00 | 0.00 | 0.00 | 29 | 971.0 |
| 20260507045056 | 66 | 11 | 0.0 | 0.9 | 0.00 | 0.00 | 0.00 | 30 | 971.0 |
| 20260507044055 | 65 | 11 | 0.0 | 0.0 | 0.00 | 0.00 | 0.00 | 29 | 971.0 |
| 20260507043554 | 66 | 11 | 0.0 | 0.0 | 0.00 | 0.00 | 0.00 | 28 | 970.9 |
| 20260507043055 | 66 | 11 | 0.0 | 0.0 | 0.00 | 0.00 | 0.00 | 28 | 970.9 |
| 20260507042555 | 66 | 11 | 0.0 | 0.0 | 0.00 | 0.00 | 0.00 | 27 | 970.8 |
| 20260507042055 | 66 | 11 | 0.0 | 0.0 | 0.00 | 0.00 | 0.00 | 27 | 970.8 |
| 20260507041555 | 66 | 11 | 0.0 | 0.0 | 0.00 | 0.00 | 0.00 | 25 | 970.7 |
| 20260507041053 | 67 | 11 | 0.0 | 0.0 | 0.00 | 0.00 | 0.00 | 26 | 970.7 |
| 20260507040555 | 67 | 11 | 0.0 | 0.0 | 0.00 | 0.00 | 0.00 | 24 | 970.5 |
| 20260507040056 | 67 | 11 | 0.0 | 0.0 | 0.00 | 0.00 | 0.00 | 24 | 970.5 |
| 20260507035554 | 68 | 11 | 0.0 | 0.0 | 0.00 | 0.00 | 0.00 | 22 | 970.4 |
| 20260507035054 | 68 | 11 | 0.0 | 0.0 | 0.00 | 0.00 | 0.00 | 22 | 970.4 |
| 20260507034553 | 69 | 11 | 0.0 | 0.9 | 0.00 | 0.00 | 0.00 | 20 | 970.3 |
| 20260507034054 | 69 | 11 | 0.0 | 0.9 | 0.00 | 0.00 | 0.00 | 19 | 970.2 |
| 20260507032543 | 71 | 11 | 0.0 | 1.7 | 0.00 | 0.00 | 0.00 | 18 | 970.2 |
| 20260507032037 | 72 | 11 | 0.0 | 1.7 | 0.00 | 0.00 | 0.00 | 17 | 970.1 |
| 20260507031533 | 72 | 11 | 0.9 | 2.6 | 0.00 | 0.00 | 0.00 | 16 | 970.1 |
| 20260507031026 | 73 | 11 | 0.9 | 2.6 | 0.00 | 0.00 | 0.00 | 16 | 970.0 |
| 20260507030519 | 73 | 11 | 0.9 | 4.3 | 0.00 | 0.00 | 0.00 | 16 | 969.9 |
| 20260507030014 | 74 | 11 | 0.9 | 4.3 | 0.00 | 0.00 | 0.00 | 16 | 969.8 |
| 20260507025508 | 74 | 11 | 0.9 | 4.3 | 0.00 | 0.00 | 0.00 | 16 | 969.8 |
| 20260507025001 | 75 | 11 | 0.9 | 4.3 | 0.00 | 0.00 | 0.00 | 15 | 969.8 |
| 20260507024454 | 75 | 11 | 0.9 | 2.6 | 0.00 | 0.00 | 0.00 | 15 | 969.7 |
| 20260507023443 | 76 | 11 | 0.9 | 3.5 | 0.00 | 0.00 | 0.00 | 15 | 969.6 |
| 20260507022938 | 76 | 11 | 0.0 | 3.5 | 0.00 | 0.00 | 0.00 | 14 | 969.6 |
| 20260507022431 | 77 | 11 | 0.0 | 3.5 | 0.00 | 0.00 | 0.00 | 13 | 969.5 |
| 20260507021924 | 78 | 11 | 0.0 | 3.5 | 0.00 | 0.00 | 0.00 | 12 | 969.4 |
| 20260507021421 | 78 | 11 | 0.0 | 3.5 | 0.00 | 0.00 | 0.00 | 11 | 969.3 |
| 20260507020914 | 79 | 11 | 0.9 | 3.5 | 0.00 | 0.00 | 0.00 | 11 | 969.4 |
| 20260507020407 | 79 | 11 | 1.7 | 5.2 | 0.00 | 0.00 | 0.00 | 10 | 969.4 |
| 20260507015902 | 79 | 11 | 1.7 | 5.2 | 0.00 | 0.00 | 0.00 | 11 | 969.3 |
| 20260507015355 | 79 | 11 | 0.9 | 4.3 | 0.00 | 0.00 | 0.00 | 13 | 969.3 |
| 20260507014849 | 80 | 11 | 0.9 | 4.3 | 0.00 | 0.00 | 0.00 | 11 | 969.3 |
| 20260507014343 | 80 | 246 | 1.7 | 4.3 | 0.00 | 0.00 | 0.00 | 11 | 969.3 |
| 20260507013836 | 80 | 11 | 1.7 | 4.3 | 0.00 | 0.00 | 0.00 | 11 | 969.3 |
| 20260507013331 | 81 | 11 | 0.9 | 4.3 | 0.00 | 0.00 | 0.00 | 12 | 969.3 |
| 20260507012825 | 81 | 11 | 0.9 | 2.6 | 0.00 | 0.00 | 0.00 | 10 | 969.3 |
| 20260507012320 | 82 | 246 | 0.9 | 2.6 | 0.00 | 0.00 | 0.00 | 11 | 969.3 |
| 20260507011815 | 83 | 251 | 0.0 | 2.6 | 0.00 | 0.00 | 0.00 | 10 | 969.3 |
| 20260507011309 | 84 | 252 | 0.0 | 2.6 | 0.00 | 0.00 | 0.00 | 10 | 969.3 |
| 20260507010801 | 84 | 250 | 0.0 | 2.6 | 0.00 | 0.00 | 0.00 | 11 | 969.3 |
| 20260507010256 | 84 | 289 | 0.9 | 4.3 | 0.00 | 0.00 | 0.00 | 8 | 969.3 |
| 20260507005749 | 84 | 293 | 1.7 | 5.2 | 0.00 | 0.00 | 0.00 | 7 | 969.3 |
| 20260507005243 | 83 | 315 | 1.7 | 5.2 | 0.00 | 0.00 | 0.00 | 8 | 969.2 |
| 20260507004738 | 83 | 296 | 1.7 | 6.1 | 0.00 | 0.00 | 0.00 | 9 | 969.3 |
| 20260507004231 | 84 | 272 | 1.7 | 6.1 | 0.00 | 0.00 | 0.00 | 9 | 969.3 |
| 20260507003726 | 84 | 270 | 1.7 | 6.1 | 0.00 | 0.00 | 0.00 | 9 | 969.3 |
| 20260507003219 | 84 | 266 | 2.6 | 6.1 | 0.00 | 0.00 | 0.00 | 10 | 969.4 |
| 20260507002713 | 84 | 289 | 2.6 | 6.1 | 0.00 | 0.00 | 0.00 | 7 | 969.3 |
| 20260507002206 | 84 | 353 | 1.7 | 6.1 | 0.00 | 0.00 | 0.00 | 10 | 969.3 |
| 20260507001702 | 83 | 306 | 0.9 | 6.1 | 0.00 | 0.00 | 0.00 | 9 | 969.3 |
| 20260507001156 | 84 | 240 | 0.9 | 6.1 | 0.00 | 0.00 | 0.00 | 8 | 969.2 |
| 20260507000650 | 84 | 292 | 0.9 | 6.1 | 0.00 | 0.00 | 0.00 | 8 | 969.3 |
| 20260507000143 | 84 | 335 | 0.0 | 4.3 | 0.00 | 0.00 | 0.00 | 10 | 969.3 |
| 20260506235638 | 84 | 236 | 1.7 | 6.1 | 0.00 | 0.00 | 0.00 | 10 | 969.3 |
| 20260506235132 | 84 | 279 | 2.6 | 6.1 | 0.00 | 0.00 | 0.00 | 7 | 969.3 |
| 20260506234626 | 84 | 296 | 2.6 | 6.1 | 0.00 | 0.00 | 0.00 | 10 | 969.3 |
| 20260506234120 | 84 | 280 | 1.7 | 7.8 | 0.00 | 0.00 | 0.00 | 11 | 969.4 |
| 20260506233612 | 85 | 299 | 1.7 | 7.8 | 0.00 | 0.00 | 0.00 | 8 | 969.5 |
| 20260506233107 | 85 | 346 | 3.5 | 7.8 | 0.00 | 0.00 | 0.00 | 9 | 969.4 |
| 20260506232600 | 84 | 343 | 2.6 | 7.8 | 0.00 | 0.00 | 0.00 | 8 | 969.5 |
| 20260506232055 | 83 | 322 | 0.9 | 8.7 | 0.00 | 0.00 | 0.00 | 9 | 969.6 |
| 20260506231549 | 83 | 225 | 0.9 | 8.7 | 0.00 | 0.00 | 0.00 | 9 | 969.6 |
| 20260506231045 | 83 | 240 | 3.5 | 8.7 | 0.00 | 0.00 | 0.00 | 9 | 969.7 |
| 20260506230537 | 84 | 213 | 4.3 | 8.7 | 0.00 | 0.00 | 0.00 | 8 | 969.7 |
| 20260506230032 | 85 | 278 | 2.6 | 8.7 | 0.00 | 0.00 | 0.00 | 9 | 969.8 |
| 20260506225525 | 85 | 126 | 1.7 | 7.0 | 0.00 | 0.00 | 0.00 | 9 | 969.7 |
| 20260506224513 | 85 | 337 | 1.7 | 6.1 | 0.00 | 0.00 | 0.00 | 9 | 969.9 |
| 20260506224007 | 84 | 26 | 0.0 | 3.5 | 0.00 | 0.00 | 0.00 | 8 | 969.9 |
| 20260506222956 | 84 | 182 | 0.9 | 4.3 | 0.00 | 0.00 | 0.00 | 8 | 970.1 |
| 20260506221955 | 83 | 221 | 1.7 | 4.3 | 0.00 | 0.00 | 0.00 | 11 | 970.1 |
| 20260506221456 | 84 | 283 | 1.7 | 6.1 | 0.00 | 0.00 | 0.00 | 10 | 970.1 |
| 20260506220954 | 83 | 256 | 1.7 | 6.1 | 0.00 | 0.00 | 0.00 | 10 | 970.3 |
| 20260506220455 | 83 | 261 | 2.6 | 7.8 | 0.00 | 0.00 | 0.00 | 10 | 970.3 |
| 20260506215955 | 83 | 237 | 2.6 | 7.8 | 0.00 | 0.00 | 0.00 | 11 | 970.4 |
| 20260506215455 | 82 | 301 | 1.7 | 7.8 | 0.00 | 0.00 | 0.00 | 11 | 970.5 |
| 20260506214956 | 82 | 282 | 1.7 | 6.1 | 0.00 | 0.00 | 0.00 | 10 | 970.5 |
| 20260506214456 | 82 | 211 | 1.7 | 6.1 | 0.00 | 0.00 | 0.00 | 10 | 970.7 |
| 20260506213956 | 83 | 228 | 1.7 | 6.1 | 0.00 | 0.00 | 0.00 | 13 | 970.7 |
| 20260506213456 | 83 | 226 | 2.6 | 8.7 | 0.00 | 0.00 | 0.00 | 13 | 970.8 |
| 20260506212955 | 83 | 234 | 2.6 | 8.7 | 0.00 | 0.00 | 0.00 | 12 | 970.8 |
| 20260506212456 | 83 | 315 | 0.9 | 4.3 | 0.00 | 0.00 | 0.00 | 9 | 970.9 |
| 20260506211957 | 83 | 200 | 0.9 | 7.0 | 0.00 | 0.00 | 0.00 | 10 | 970.9 |
| 20260506211454 | 83 | 318 | 1.7 | 7.0 | 0.00 | 0.00 | 0.00 | 10 | 971.0 |
| 20260506210954 | 83 | 337 | 2.6 | 7.0 | 0.00 | 0.00 | 0.00 | 13 | 971.1 |
| 20260506210455 | 83 | 357 | 3.5 | 7.8 | 0.00 | 0.00 | 0.00 | 9 | 971.3 |
| 20260506205957 | 83 | 18 | 3.5 | 8.7 | 0.00 | 0.00 | 0.00 | 10 | 971.2 |
| 20260506205453 | 83 | 46 | 3.5 | 8.7 | 0.00 | 0.00 | 0.00 | 12 | 971.3 |
| 20260506204948 | 83 | 41 | 2.6 | 7.0 | 0.00 | 0.00 | 0.00 | 12 | 971.5 |
| 20260506204441 | 82 | 12 | 2.6 | 7.0 | 0.00 | 0.00 | 0.00 | 15 | 971.5 |
| 20260506203935 | 82 | 281 | 2.6 | 8.7 | 0.00 | 0.00 | 0.00 | 15 | 971.6 |
| 20260506203429 | 82 | 332 | 2.6 | 8.7 | 0.00 | 0.00 | 0.00 | 11 | 971.6 |
| 20260506202923 | 82 | 102 | 3.5 | 8.7 | 0.00 | 0.00 | 0.00 | 12 | 971.6 |
| 20260506202417 | 81 | 12 | 3.5 | 8.7 | 0.00 | 0.00 | 0.00 | 10 | 971.7 |
| 20260506201911 | 80 | 296 | 1.7 | 6.1 | 0.00 | 0.00 | 0.00 | 12 | 971.7 |
| 20260506201405 | 80 | 317 | 0.9 | 5.2 | 0.00 | 0.00 | 0.00 | 14 | 971.7 |
| 20260506200857 | 79 | 215 | 0.9 | 4.3 | 0.00 | 0.00 | 0.00 | 16 | 971.8 |
| 20260506200354 | 79 | 11 | 0.9 | 5.2 | 0.00 | 0.00 | 0.00 | 14 | 971.8 |
| 20260506195848 | 79 | 11 | 0.9 | 5.2 | 0.00 | 0.00 | 0.00 | 14 | 971.8 |
| 20260506195343 | 79 | 272 | 0.9 | 6.1 | 0.00 | 0.00 | 0.00 | 13 | 971.9 |
| 20260506194835 | 80 | 273 | 1.7 | 6.1 | 0.00 | 0.00 | 0.00 | 17 | 971.9 |
| 20260506194329 | 80 | 78 | 1.7 | 5.2 | 0.00 | 0.00 | 0.00 | 13 | 971.9 |
| 20260506193823 | 80 | 13 | 2.6 | 8.7 | 0.00 | 0.00 | 0.00 | 17 | 971.9 |
| 20260506193318 | 80 | 304 | 3.5 | 8.7 | 0.00 | 0.00 | 0.00 | 14 | 972.0 |